This demonstration page uses our WeatherBlox Daily Observations layout. Learn more.

Left ArrowRight Arrow

44.89941, -97.11507

Hourly Observations for August 26, 2016

Temp ( °F °C ) Dew Point ( °F °C ) Humidity (%) Winds ( mph kmh ) Pressure ( in mb ) Visibility ( mi km ) Precip ( " mm )
12:53 am 00:53 Clear 53 11.7 50 10 89 89 Calm 30.18 1022 10 16 0.00 0.00
1:53 am 01:53 Clear 52 11.1 49 9.4 89 89 Calm 30.16 1022 10 16 0.00 0.00
2:53 am 02:53 Clear 53 11.7 51 10.6 93 93 Calm 30.16 1022 10 16 0.00 0.00
3:53 am 03:53 Clear 51 10.6 50 10 96 96 Calm 30.17 1022 10 16 0.00 0.00
4:53 am 04:53 Clear 49 9.4 47 8.3 93 93 SSE 3 6 30.17 1022 10 16 0.00 0.00
5:39 am 05:39 Partly Cloudy 50 10 48 8.9 93 93 Calm 30.18 1022 9 14 0.00 0.00
5:49 am 05:49 Mostly Cloudy 50 10 48 9 94 94 Calm 30.15 1021 8 13 0.00 0.00
5:53 am 05:53 Mostly Cloudy 50 10 48 8.9 93 93 Calm 30.16 1022 9 14 0.00 0.00
6:04 am 06:04 Partly Cloudy 49 9.4 47 8.3 93 93 Calm 30.18 1022 10 16 0.00 0.00
6:53 am 06:53 Sunny 48 8.9 46 7.8 93 93 Calm 30.18 1022 10 16 0.00 0.00
7:53 am 07:53 Sunny 52 11.1 49 9.4 89 89 Calm 30.18 1022 10 16 0.00 0.00
8:53 am 08:53 Sunny 58 14.4 53 11.7 84 84 Calm 30.18 1022 10 16 0.00 0.00
9:53 am 09:53 Sunny 62 16.7 54 12.2 75 75 SW 5 7 30.17 1022 10 16 0.00 0.00
10:53 am 10:53 Sunny 65 18.3 54 12.2 68 68 S 5 7 30.16 1022 10 16 0.00 0.00
11:53 am 11:53 Sunny 68 20 52 11.1 57 57 S 7 11 30.15 1021 10 16 0.00 0.00
12:53 pm 12:53 Sunny 69 20.6 51 10.6 53 53 undefined N/A 30.15 1021 10 16 0.00 0.00
1:53 pm 13:53 Mostly Cloudy 70 21.1 51 10.6 51 51 SSW 6 9 30.15 1021 10 16 0.00 0.00
2:53 pm 14:53 Partly Cloudy 71 21.7 51 10.6 49 49 VRB 3 6 30.13 1020 10 16 0.00 0.00
3:53 pm 15:53 Mostly Cloudy 70 21.1 52 11.1 53 53 S 5 7 30.12 1020 10 16 0.00 0.00
4:53 pm 16:53 Cloudy 70 21.1 51 10.6 51 51 S 5 7 30.12 1020 10 16 0.00 0.00
5:53 pm 17:53 Partly Cloudy 70 21.1 50 10 49 49 Calm 30.11 1020 10 16 0.00 0.00
6:53 pm 18:53 Mostly Sunny 69 20.6 52 11.1 55 55 SSE 7 11 30.08 1019 10 16 0.00 0.00
7:53 pm 19:53 Mostly Cloudy 66 18.9 52 11.1 61 61 SSE 3 6 30.07 1018 10 16 0.00 0.00
8:53 pm 20:53 Cloudy 66 18.9 53 11.7 63 63 SE 6 9 30.06 1018 10 16 0.00 0.00
9:53 pm 21:53 Cloudy 65 18.3 55 12.8 70 70 SSE 8 13 30.06 1018 10 16 0.00 0.00
10:53 pm 22:53 Cloudy 64 17.8 55 12.8 73 73 SE 7 11 30.07 1018 10 16 0.00 0.00
11:53 pm 23:53 Mostly Cloudy 63 17.2 55 12.8 76 76 SSE 10 17 30.05 1018 10 16 0.00 0.00

Powered by AerisWeather